Find Kuiper-00250

NORAD ID: 67155 Int'l Des: 2025-301 Owner: KUIP Country: US Constellation: amazon-leo operational
LEOCIRCULAR

当前视图

正在加载3D地球...

About Kuiper-00250

Kuiper-00250 (NORAD 67155) is a amazon-leo constellation satellite launched Dec 16, 2025 by KUIP of US. It operates in LEO, CIRCULAR orbit with a mass of 490.00 kg.

关于 Kuiper-00250

正在加载描述...

即将过境

Passes for default location (London). Set your location on the main map for personalized predictions.

高度历史

Loading altitude history...

两行轨道根数

1 67155U 25301Y 26171.19767434 .00000046 00000-0 35008-4 0 9993
2 67155 51.8999 337.3076 0000570 115.6942 244.4079 14.79928435 28873
Epoch: Jun 20, 2026 • Age: 28 hours

当前状态

高度 634.8 km
速度 7.55 km/s
星下点 49.28°N, 1.88°W
发射日期 Dec 16, 2025
运行时间 0.5 years
类型 internet

技术详情

分类 Payload
质量 490.00 kg
干质量 490.00 kg
总质量 490.00 kg
长度 1.80 m
直径 0.70 m
跨度 5.00 m
形状 Box + 2 pan
制造商 KUIP
平台类型 Kuiper
阶段状态 In Orbit
所有者/国家 KUIP/US

Most Searched